Regional Weather Roundup
Issued by NWS Wakefield, VA

Home | Current Version | Previous Version | Text Only | Print | Product List | Glossary Off
Versions: 1 2 3 4 5 6 7 8 9 10 11 12 13 14 15 16 17 18 19 20 21 22 23 24 25 26 27 28 29 30 31 32 33 34 35 36 37 38 39 40 41 42 43 44 45 46 47 48 49 50

566
ASUS41 KAKQ 221215
RWRAKQ

REGIONAL WEATHER ROUNDUP
NATIONAL WEATHER SERVICE WAKEFIELD VA
700 AM EST WED NOV 22 2017

Note: "fair" indicates few or no clouds below 12,000 feet with no
significant weather and/or obstructions to visibility. * = Denotes
station may not report precipitation (e.g., rain,snow,etc.),
thunder or fog.

VAZ042-051-052>054-056-221300-
NORTHERN VIRGINIA

CITY           SKY/WX    TMP DP  RH WIND       PRES   REMARKS
WASH NATIONAL  CLOUDY    51  49  92 S3        29.94R
DULLES         CLOUDY    46  43  89 W3        29.96R
FORT BELVOIR   CLOUDY    48  46  94 SE3       29.94R
QUANTICO       CLOUDY    51  50  96 SE3       29.95R
FREDERICKSBRG* MOCLDY    51  51 100 CALM      29.93R
STAFFORD*      CLOUDY    49  49 100 NW6       29.97R
WARRENTON      NOT AVBL
CULPEPER*      CLOUDY    46  40  81 N5        29.96R
MANASSAS*      CLOUDY    46  44  93 NW3       29.95S
LEESBURG*      CLOUDY    54  39  58 NW12      29.96R
WINCHESTER     CLOUDY    48  32  53 W7        29.97R
FRONT ROYAL*   PTSUNNY   52  36  54 W7        29.95S
LURAY*         MOSUNNY   46  43  87 CALM      29.97R
$$

VAZ048-049-060>072-079>083-221300-
CENTRAL AND SOUTH CENTRAL VIRGINIA

CITY           SKY/WX    TMP DP  RH WIND       PRES   REMARKS
RICHMOND       MOCLDY    51  51 100 SW3       29.93S
CHESTERFIELD*  NOT AVBL
PETERSBURG*    CLOUDY   N/A N/A N/A CALM      29.94R
HANOVER        CLOUDY    52  51  97 CALM      29.95R
TAPPAHANNOCK*    N/A    N/A N/A N/A MISG        N/A
QUINTON*       CLOUDY    50  50 100 CALM      29.92S FOG
CHARLOTTSVILLE CLOUDY    45  41  86 N3        29.95R
GORDONSVILLE*  CLOUDY    48  46  93 CALM      29.94R
ORANGE*        CLOUDY    46  45  93 CALM      29.94S
LOUISA*        CLOUDY    48  48  98 W5        29.97S
BUMPASS*       CLOUDY    48  48 100 W5        29.93R
FARMVILLE*     CLOUDY    49  49 100 CALM      29.94R FOG
CREWE*         CLOUDY    49  49 100 CALM      29.93S VSB 1
FORT PICKETT*  NOT AVBL
CHASE CITY*    CLOUDY    49  49 100 CALM      29.95S
CLARKSVILLE*   CLOUDY    50  50 100 CALM      29.95R
SOUTH HILL*    CLOUDY    51  51 100 CALM      30.00R
LAWRENCEVILLE* CLOUDY    51  50  97 CALM      29.94S
EMPORIA*       RAIN      50  50 100 CALM      29.95F
$$

VAZ088>098-221300-
SOUTHEAST VIRGINIA

CITY           SKY/WX    TMP DP  RH WIND       PRES   REMARKS
NORFOLK        CLOUDY    60  59  96 CALM      29.90S
VIRGINIA BEACH CLOUDY    60  58  92 S3        29.88F
NORFOLK NAVAL  NOT AVBL
WEST POINT*    CLOUDY    52  51  97 CALM      29.95R
SALUDA*        CLOUDY    52  52 100 NW5       29.92S
NEWPORT NEWS   CLOUDY    56  51  84 NW7       29.93R
LANGLEY AFB    MOCLDY    56  55  95 NW5       29.91S
FORT EUSTIS    LGT RAIN  54  52  91 NW6       29.90S
WILLIAMSBURG*  CLOUDY    55  54  94 CALM      29.94R
HR EXEC AP*    NOT AVBL
FRANKLIN*      LGT RAIN  53  50  91 NW3       29.94R
US460-WAKEFLD  LGT RAIN  53  53 100 N5        29.93S FOG
$$

VAZ020-022-025-037-045-221300-
WEST CENTRAL AND SOUTHWEST VIRGINIA

CITY           SKY/WX    TMP DP  RH WIND       PRES   REMARKS
STAUNTON*      PTCLDY    38  37  97 CALM      29.99R
WAYNESBORO*    CLOUDY    48  39  71 W6        29.97R
HOT SPRINGS VA PTCLDY    38  28  69 W20G29    29.95R
LYNCHBURG      CLEAR     47  42  83 W3        29.96S
DANVILLE       CLOUDY    49  49 100 W5        29.97R
SOUTH BOSTON*  CLOUDY    49  47  95 CALM      29.96R
MARTINSVILLE   CLEAR     41  39  91 CALM      30.01R
ROANOKE        CLEAR     48  32  53 NW5       30.01R
BLACKSBURG     CLEAR     45  33  63 W6G17     30.03R
DUBLIN*        CLEAR     45  33  62 NW8       30.03R
MARION*        PTCLDY    43  29  59 SW7       30.06R
HILLSVILLE*    CLEAR     42  32  69 NW8       29.99R
RICHLANDS*     FAIR      40  25  55 NW6       30.06R
WISE*          CLEAR     37  32  81 NW8       30.08S
ABINGDON*      CLEAR     46  32  59 NW6       30.07R
$$

MDZ021>025-VAZ099-100-221300-
SOUTHERN MARYLAND AND THE DELMARVA PENINSULA

CITY           SKY/WX    TMP DP  RH WIND       PRES   REMARKS
PATUXENT RIVER LGT RAIN  55  53  93 SW8       29.90S
BAY BRIDGE APT CLOUDY    52  50  93 W3        29.93R
LEONARDTOWN    CLOUDY    52  50  93 SW3       29.93R
DOVER          LGT RAIN  54  52  94 W6        29.91S
GEORGETOWN     HVY RAIN  56  55  97 W5        29.92F FOG
EASTON         CLOUDY    55  54  94 W5        29.95S
CAMBRIDGE      CLOUDY    54  54 100 CALM      29.91F
SALISBURY      RAIN      55  55 100 W7        29.92S
OCEAN CITY     CLOUDY    60  58  92 SW6       29.90F
WALLOPS ISLAND LGT RAIN  58  58 100 W9        29.90F
ACCOMACK*      CLOUDY    59  57  94 NW9       29.90S
$$

NCZ012>017-030>032-221300-
NORTH CENTRAL AND EASTERN NORTH CAROLINA

CITY           SKY/WX    TMP DP  RH WIND       PRES   REMARKS
ROANOKE RAPIDS CLOUDY    52  52 100 CALM      29.94S FOG
RALEIGH        MOCLDY    51  51 100 CALM      29.95F
ELIZABETH CITY CLOUDY    58  58 100 N3        29.88S
AHOSKIE*       DRIZZLE   52  52 100 CALM      29.94R
EDENTON*       CLOUDY    59  58  96 CALM      29.90S FOG
CURRITUCK*     CLOUDY    59  59  98 CALM      29.89S FOG
KILL DEVIL HLS CLOUDY   N/A N/A N/A CALM      29.86F HAZE
MANTEO         CLOUDY    58  57  99 NE3       29.89R
CAPE HATTERAS  CLOUDY    60  60 100 VRB5      29.86S
TARBORO*       NOT AVBL
GOLDSBORO      PTCLDY    55  52  88 W3        29.91F
WASHINGTON     FOG       55  54  97 CALM      29.91S VSB 3/4
GREENVILLE     CLOUDY    54  54 100 CALM      29.94R
NEW BERN       MOCLDY    55  55 100 S3        29.92S
WILMINGTON     CLOUDY    60  60 100 W5        29.92R FOG
$$

VAZ048-221300-
ELSEWHERE

CITY           SKY/WX    TMP DP  RH WIND       PRES   REMARKS
HARRISBURG PA  CLOUDY    43  38  82 N5        29.93R
BALTIMORE      CLOUDY    48  48 100 W3        29.92S
ANNAPOLIS      CLOUDY    53  52  96 NW3       29.92S
ANDREWS AFB    CLOUDY    50  48  93 SW3       29.92S
PHILADELPHIA   LGT RAIN  51  49  92 W6        29.91F
GREENSBORO     MOCLDY    49  47  93 NW8       29.96R
ROCKY MOUNT    LGT RAIN  54  54 100 NW7       29.93F FOG
$$

VAZ100-221300-
MARINE

STATION/POSITION TIME  TEMP    WIND        PRES    WAVE   SWELL
                       AIR SEA DIR/SP/G            HT/PER HT/PER
                 (UTC) (F)     (DEG/KT/KT) (MB)    (FT/S) (FT/S)
BRANDYWINE LGT   1142   56     260/ 14/ 16 1013.4R
CAPE MAY NJ      1148   54 50  270/ 12/ 16 1012.5R
LEWES DE         1148   57 52  290/ 15/ 18 1012.6R
15NM E FENWICK I 1150   59 57   50/  4/  6 1012.7F   2/ 4   2/ 4
OCEAN-CITY-INLET 1148   58 51  260/  3/  4 1012.5F
WACHAPREAGUE VA  1148   60 51  240/  4/  6 1011.9F
THOMAS POINT MD  1200   53 53  260/  6/  7   N/A
GOOSES REEF MD   1150   54     310/  6/ 10 1013.9R
COVE POINT MD    1148   54     160/  6/  7 1013.7R
SOLOMONS ISLAND  1148   54 54  200/  4/  6 1012.5R
BISHOPS HEAD MD  1148   53 49  250/  5/  6 1013.0F
PINEY POINT MD   1142          290/  2/  2   N/A
POTOMAC MD       1150   54     260/  6/  8 1012.4R
CAMBRIDGE MD     1148   54 50              1013.6F
LEWISETTA VA     1148   53 51  240/  3/  3 1012.8F
RAPPAHANNOCK LGT 1148          330/  7/  8 1013.1F
STINGRAY PT      1150   54     340/  6/  8 1013.0F
YORK RVR RNG VA  1148   54     340/  9/ 10 1013.2F
YORKTOWN VA      1148   54 54  300/  8/  9 1012.6R
JAMESTOWN VA     1150          310/ 10/ 12   N/A
DOMINION TERM VA 1148   54     310/  8/ 10 1012.8S
KIPTOPEKE VA     1148      54  210/  7/ 11   N/A
CAPE HENRY VA    1148   61     170/  7/ 10   N/A
WILLOUBY STN VA  1142   58     310/  8/  9 1012.4R
S CRANEY ISL VA  1148   56     300/  6/ 10 1012.2F
CAPE HENRY BUOY  1200      56                N/A     3/ 6
1ST LANDING BUOY 1150   59     310/  8/ 16 1012.2F
CAPE CHARLES BUO 1151      56                N/A     2/ 5
64NM E OF VA BCH 1150   61 62  160/  4/  6 1013.3F   6/ 7   7/ 7
DUCK PIER NC     1148   60 60  100/  7/  8 1011.1F
44100 DUCK FRF   1145      61                N/A     4/ 7
44056 DUCK FRF   1200      61                N/A     4/ 7
OREGON INLET NC  1142   58 55   50/  9/ 11 1011.2F
HATTERAS NC      1148   60 59   40/  6/ 10 1011.0R
DIAMOND SHLS NC  1150   67 74   40/ 16/ 19 1011.0F   9/ 8
CAPE LOOKOUT NC  1200          300/  8/  9 1012.9R
$$




USA.gov is the U.S. government's official web portal to all federal, state and local government web resources and services.